User: anonymous   Login
Location: Central Falls
(41.8900°N, 71.3929°W)
Time: 20:11:49
(UTC+00:00)
Language:

Transit 2A - Orbit

View from above orbital plane
View from above orbital plane
View from above satellite
View from above satellite

Ground track
Ground track

The orbit data is extracted from the following two-line orbital elements,

1    45U 60007A   23340.17527464  .00000352  00000-0  11529-3 0  9991
2    45  66.6945 281.5782 0246369 114.0221 248.6877 14.34460365304310
Epoch (UTC): 06 December 2023 04:12:23
Eccentricity: 0.0246369
inclination: 66.6945°
perigee height: 600 km
apogee height: 953 km
right ascension of ascending node: 281.5782°
argument of perigee: 114.0221°
revolutions per day: 14.34460365
mean anomaly at epoch: 248.6877°
orbit number at epoch: 30431

The dashed part of the orbit path shows where the satellite is in the earth's shadow,  

DLR